Terminal Aerodrome Forecast
Issued by NWS

Home | Current Version | Previous Version | Graphics & Text | Print | Product List | Glossary On
Versions: 1 2 3 4 5 6 7 8 9 10 11 12 13 14 15 16 17 18 19
561
FTUS43 KABR 271725
TAFMBG
TAF
KMBG 271725Z 2718/2818 31010KT P6SM SCT200
     FM272300 31019G27KT P6SM BKN150
     FM280200 30011KT P6SM SCT140
     FM280400 30008KT P6SM FEW200
     FM281600 32019G27KT P6SM FEW200=

USA.gov is the U.S. government's official web portal to all federal, state and local government web resources and services.